Chester, SC

1:34 AM EDT on October 16, 2019 (GMT -0400)
Chester

Weather History for KDCM - August, 2019

Change the Weather History Date:

Thursday, August 22, 2019

  Actual Average (WUND) Record (WUND)
Temperature  
Mean Temperature 82 °F -  
Max Temperature 93 °F - - (-1)
Min Temperature 71 °F - - (-1)
Cooling Degree Days 17    
Growing Degree Days 32 (Base 50)    
Moisture  
Dew Point 69 °F    
Average Humidity 71    
Maximum Humidity 100    
Minimum Humidity 36    
Precipitation  
Precipitation 0.00 in - - ()
Sea Level Pressure  
Sea Level Pressure 30.04 in    
Wind  
Wind Speed 3 mph (SW)    
Max Wind Speed 10 mph    
Max Gust Speed -    
Visibility 9 miles    
Events Thunderstorm    
Averages and records for this station are not official NWS values.
T = Trace of Precipitation, MM = Missing Value Source: NWS Daily Summary

Daily Weather History Graph

Daily Weather History Graph

Search for Another Location

Airport or City:

Astronomy

Aug. 22, 2019 Rise Set
Actual Time 6:50 AM EDT 8:04 PM EDT
Civil Twilight 6:23 AM EDT 8:30 PM EDT
Nautical Twilight 5:52 AM EDT 9:02 PM EDT
Astronomical Twilight 5:19 AM EDT 9:34 PM EDT
Moon No Moon Rise 1:08 PM EDT (8/22)
Length of Visible Light 14h 07m
Length of Day
13h 14m
Waning Gibbous, 60% of the Moon is Illuminated
Aug 22
Waning Gibbous
Aug 23
Last Quarter
Aug 30
New
Sep 5
First Quarter
Sep 14
Full

Hourly Weather History & Observations

Time (EDT) Temp. Heat Index Dew Point Humidity Pressure Visibility Wind Dir Wind Speed Gust Speed Precip Events Conditions
12:15 AM 78.8 °F - 69.8 °F 74% 30.07 in 10.0 mi South 3.5 mph - N/A   Clear
12:35 AM 78.8 °F - 69.8 °F 74% 30.08 in 10.0 mi SSW 4.6 mph - N/A   Clear
12:55 AM 77.0 °F - 69.8 °F 78% 30.08 in 10.0 mi SSW 3.5 mph - N/A   Clear
1:15 AM 77.0 °F - 69.8 °F 78% 30.07 in 7.0 mi SSW 3.5 mph - N/A   Clear
1:35 AM 77.0 °F - 69.8 °F 78% 30.07 in 10.0 mi SSW 3.5 mph - N/A   Clear
1:55 AM 75.2 °F - 69.8 °F 83% 30.06 in 10.0 mi Calm Calm - N/A   Clear
2:15 AM 75.2 °F - 69.8 °F 83% 30.06 in 10.0 mi SSW 3.5 mph - N/A   Clear
2:35 AM 75.2 °F - 69.8 °F 83% 30.05 in 7.0 mi SSW 3.5 mph - N/A   Clear
2:55 AM 75.2 °F - 69.8 °F 83% 30.04 in 7.0 mi South 3.5 mph - N/A   Clear
3:15 AM 73.4 °F - 69.8 °F 88% 30.03 in 10.0 mi Calm Calm - N/A   Clear
3:35 AM 73.4 °F - 69.8 °F 88% 30.03 in 7.0 mi South 4.6 mph - N/A   Clear
3:55 AM 73.4 °F - 69.8 °F 88% 30.03 in 7.0 mi Calm Calm - N/A   Clear
4:15 AM 73.4 °F - 71.6 °F 94% 30.03 in 10.0 mi SSW 3.5 mph - N/A   Clear
4:35 AM 73.4 °F - 71.6 °F 94% 30.03 in 7.0 mi SSW 4.6 mph - N/A   Clear
4:55 AM 73.4 °F - 71.6 °F 94% 30.03 in 7.0 mi SSW 4.6 mph - N/A   Clear
5:15 AM 73.4 °F - 71.6 °F 94% 30.03 in 10.0 mi SW 3.5 mph - N/A   Clear
5:35 AM 73.4 °F - 71.6 °F 94% 30.04 in 10.0 mi Calm Calm - N/A   Clear
5:55 AM 71.6 °F - 71.6 °F 100% 30.04 in 10.0 mi Calm Calm - N/A   Clear
6:15 AM 71.6 °F - 71.6 °F 100% 30.05 in 10.0 mi SSW 3.5 mph - N/A   Clear
6:35 AM 71.6 °F - 71.6 °F 100% 30.06 in 10.0 mi Calm Calm - N/A   Clear
6:55 AM 71.6 °F - 71.6 °F 100% 30.07 in 10.0 mi SSW 4.6 mph - N/A   Clear
7:15 AM 71.6 °F - 71.6 °F 100% 30.07 in 10.0 mi SSW 4.6 mph - N/A   Clear
7:55 AM 71.6 °F - 71.6 °F 100% 30.07 in 10.0 mi SW 4.6 mph - N/A   Clear
8:15 AM 73.4 °F - 71.6 °F 94% 30.07 in 10.0 mi SW 5.8 mph - N/A   Clear
8:35 AM 73.4 °F - 71.6 °F 94% 30.07 in 10.0 mi SSW 4.6 mph - N/A   Clear
8:55 AM 77.0 °F - 71.6 °F 83% 30.08 in 10.0 mi SW 5.8 mph - N/A   Clear
9:15 AM 77.0 °F - 69.8 °F 78% 30.07 in 10.0 mi Calm Calm - N/A   Clear
9:35 AM 78.8 °F - 69.8 °F 74% 30.08 in 10.0 mi SW 4.6 mph - N/A   Clear
9:55 AM 80.6 °F 83.9 °F 69.8 °F 70% 30.09 in 10.0 mi SW 4.6 mph - N/A   Clear
10:15 AM 82.4 °F 86.3 °F 69.8 °F 66% 30.09 in 7.0 mi Calm Calm - N/A   Clear
10:35 AM 82.4 °F 86.3 °F 69.8 °F 66% 30.08 in 7.0 mi Calm Calm - N/A   Clear
10:55 AM 84.2 °F 88.4 °F 69.8 °F 62% 30.09 in 10.0 mi WSW 4.6 mph - N/A   Clear
11:15 AM 86.0 °F 90.4 °F 69.8 °F 58% 30.09 in 7.0 mi SW 4.6 mph - N/A   Clear
11:35 AM 87.8 °F 92.6 °F 69.8 °F 55% 30.09 in 7.0 mi Calm Calm - N/A   Clear
11:55 AM 87.8 °F 92.6 °F 69.8 °F 55% 30.08 in 7.0 mi Calm Calm - N/A   Clear
12:35 PM 89.6 °F 93.4 °F 68.0 °F 49% 30.07 in 7.0 mi SW 4.6 mph - N/A   Clear
12:55 PM 89.6 °F 93.4 °F 68.0 °F 49% 30.06 in 10.0 mi SW 4.6 mph - N/A   Scattered Clouds
1:15 PM 89.6 °F 93.4 °F 68.0 °F 49% 30.06 in 7.0 mi SW 4.6 mph - N/A   Scattered Clouds
1:35 PM 91.4 °F 95.4 °F 68.0 °F 46% 30.05 in 7.0 mi South 4.6 mph - N/A   Scattered Clouds
1:55 PM 91.4 °F 94.0 °F 66.2 °F 43% 30.04 in 7.0 mi WSW 5.8 mph - N/A Thunderstorm Scattered Clouds
2:15 PM 91.4 °F 94.0 °F 66.2 °F 43% 30.03 in 7.0 mi SSW 8.1 mph - N/A   Scattered Clouds
2:35 PM 89.6 °F 91.1 °F 64.4 °F 43% 30.02 in 7.0 mi West 4.6 mph - N/A Thunderstorm Scattered Clouds
2:55 PM 91.4 °F 93.2 °F 64.4 °F 41% 30.02 in 5.0 mi SW 3.5 mph - N/A Thunderstorm Haze
3:15 PM 91.4 °F 93.2 °F 64.4 °F 41% 30.01 in 7.0 mi WSW 6.9 mph - N/A Thunderstorm Scattered Clouds
3:35 PM 93.2 °F 94.9 °F 64.4 °F 38% 30.00 in 10.0 mi SSW 5.8 mph - N/A Thunderstorm Scattered Clouds
3:55 PM 91.4 °F 93.2 °F 64.4 °F 41% 30.00 in 7.0 mi SW 3.5 mph - N/A Thunderstorm Clear
4:15 PM 93.2 °F 94.9 °F 64.4 °F 38% 29.99 in 7.0 mi SSW 4.6 mph - N/A Thunderstorm Clear
4:35 PM 93.2 °F 94.1 °F 62.6 °F 36% 29.99 in 7.0 mi SW 5.8 mph - N/A Thunderstorm Scattered Clouds
4:55 PM 89.6 °F 91.1 °F 64.4 °F 43% 29.99 in 7.0 mi WSW 3.5 mph - N/A Thunderstorm Thunderstorm
5:15 PM 93.2 °F 94.9 °F 64.4 °F 38% 29.99 in 5.0 mi SSW 4.6 mph - N/A Thunderstorm Unknown
5:35 PM 84.2 °F 85.6 °F 64.4 °F 51% 30.00 in 10.0 mi North 10.4 mph - N/A Thunderstorm Mostly Cloudy
5:55 PM 84.2 °F 85.6 °F 64.4 °F 51% 30.00 in 10.0 mi North 6.9 mph - N/A Thunderstorm Mostly Cloudy
6:15 PM 82.4 °F 83.9 °F 64.4 °F 54% 30.00 in 7.0 mi NNE 5.8 mph - N/A   Scattered Clouds
6:35 PM 82.4 °F 84.6 °F 66.2 °F 58% 30.01 in 10.0 mi ENE 8.1 mph - N/A Thunderstorm Scattered Clouds
6:55 PM 80.6 °F 82.7 °F 66.2 °F 61% 30.01 in 7.0 mi NNE 5.8 mph - N/A Thunderstorm Thunderstorm
7:15 PM 78.8 °F - 66.2 °F 65% 30.02 in 10.0 mi NNE 4.6 mph - N/A   Overcast
7:35 PM 78.8 °F - 68.0 °F 69% 30.01 in 10.0 mi NE 4.6 mph - N/A Thunderstorm Overcast
7:55 PM 78.8 °F - 66.2 °F 65% 30.01 in 10.0 mi Calm Calm - N/A Thunderstorm Thunderstorm
8:15 PM 77.0 °F - 68.0 °F 74% 30.01 in 7.0 mi Calm Calm - N/A Thunderstorm Thunderstorm
8:35 PM 77.0 °F - 68.0 °F 74% 30.02 in 7.0 mi NNE 3.5 mph - N/A Thunderstorm Thunderstorm
8:55 PM 77.0 °F - 68.0 °F 74% 30.03 in 10.0 mi North 4.6 mph - N/A Thunderstorm Thunderstorm
9:15 PM 75.2 °F - 69.8 °F 83% 30.03 in 10.0 mi Calm Calm - N/A Thunderstorm Thunderstorm
9:35 PM 75.2 °F - 69.8 °F 83% 30.04 in 10.0 mi East 3.5 mph - N/A Thunderstorm Clear
9:55 PM 75.2 °F - 69.8 °F 83% 30.04 in 10.0 mi East 3.5 mph - N/A Thunderstorm Clear
10:15 PM 73.4 °F - 69.8 °F 88% 30.04 in 10.0 mi Calm Calm - N/A   Clear
10:35 PM 73.4 °F - 69.8 °F 88% 30.05 in 10.0 mi Calm Calm - N/A   Clear
10:55 PM 75.2 °F - 69.8 °F 83% 30.04 in 10.0 mi Calm Calm - N/A Thunderstorm Thunderstorm
11:15 PM 75.2 °F - 69.8 °F 83% 30.05 in 10.0 mi ESE 3.5 mph - N/A Thunderstorm Clear
11:35 PM 73.4 °F - 69.8 °F 88% 30.05 in 10.0 mi Calm Calm - N/A Thunderstorm Clear
11:55 PM 73.4 °F - 69.8 °F 88% 30.06 in 10.0 mi Calm Calm - N/A Thunderstorm Clear